GW4603 Weather Reports


time (UTC)temp
F
wind
direction
speed
knots
gust
knots
rain 1hr
in
rain 24hr
in
rain mn
in
humidity
%
barometer
mb
20260502233738 45 300 3.5 8.7 0.00 0.00 0.00 55 1015.1
20260502233234 45 303 0.0 2.6 0.00 0.00 0.00 55 1014.9
20260502232730 45 298 3.5 7.8 0.00 0.00 0.00 55 1015.1
20260502232227 45 282 5.2 7.0 0.00 0.00 0.00 54 1015.1
20260502231724 46 312 0.0 2.6 0.00 0.00 0.00 53 1015.0
20260502231222 46 293 0.0 1.7 0.00 0.00 0.00 52 1014.9
20260502230721 46 324 1.7 1.7 0.00 0.00 0.00 52 1014.8
20260502230219 46 281 1.7 5.2 0.00 0.00 0.00 52 1015.0
20260502225714 47 306 5.2 8.7 0.00 0.00 0.00 50 1014.8
20260502225212 47 285 2.6 7.8 0.00 0.00 0.00 51 1014.9
20260502224707 46 306 3.5 6.1 0.00 0.00 0.00 53 1014.8
20260502224204 46 297 5.2 7.0 0.00 0.00 0.00 51 1014.7
20260502223702 47 301 2.6 5.2 0.00 0.00 0.00 50 1014.7
20260502223200 47 342 0.0 5.2 0.00 0.00 0.00 51 1014.7
20260502222657 47 285 2.6 3.5 0.00 0.00 0.00 51 1014.7
20260502222154 48 307 0.9 5.2 0.00 0.00 0.00 50 1014.8
20260502221649 47 241 5.2 7.0 0.00 0.00 0.00 50 1014.8
20260502221147 47 294 1.7 2.6 0.00 0.00 0.00 54 1014.6
20260502220643 47 303 6.1 6.1 0.00 0.00 0.00 51 1014.9
20260502220139 47 290 3.5 7.0 0.00 0.00 0.00 51 1014.7
20260502215637 47 286 1.7 2.6 0.00 0.00 0.00 52 1014.8
20260502215133 47 281 2.6 5.2 0.00 0.00 0.00 51 1014.7
20260502214630 47 300 0.0 5.2 0.00 0.00 0.00 54 1014.7
20260502214122 47 303 2.6 2.6 0.00 0.00 0.00 52 1014.6
20260502213620 46 303 4.3 5.2 0.00 0.00 0.00 53 1014.7
20260502213117 47 296 1.7 6.1 0.00 0.00 0.00 52 1014.6
20260502212616 47 341 0.9 7.0 0.00 0.00 0.00 53 1014.5
20260502212113 47 308 5.2 7.0 0.00 0.00 0.00 53 1014.5
20260502211603 47 307 3.5 6.1 0.00 0.00 0.00 51 1014.4
20260502211100 47 287 4.3 5.2 0.00 0.00 0.00 53 1014.5
20260502210557 47 303 3.5 5.2 0.00 0.00 0.00 53 1014.4
20260502210054 47 299 1.7 3.5 0.00 0.00 0.00 52 1014.4
20260502205550 50 285 3.5 6.1 0.00 0.00 0.00 50 1014.3
20260502205048 50 307 2.6 3.5 0.00 0.00 0.00 51 1014.2
20260502204544 49 276 1.7 3.5 0.00 0.00 0.00 51 1014.5
20260502204042 47 50 2.6 3.5 0.00 0.00 0.00 53 1014.5
20260502203539 47 305 2.6 3.5 0.00 0.00 0.00 53 1014.7
20260502203036 47 303 7.0 12.2 0.00 0.00 0.00 52 1014.6
20260502202532 47 333 1.7 3.5 0.00 0.00 0.00 51 1014.5
20260502202030 48 312 5.2 7.0 0.00 0.00 0.00 49 1014.4
20260502201526 48 290 2.6 6.1 0.00 0.00 0.00 52 1014.6
20260502201022 48 311 5.2 7.0 0.00 0.00 0.00 50 1014.5
20260502200518 48 311 5.2 6.1 0.00 0.00 0.00 51 1014.5
20260502200016 47 324 4.3 5.2 0.00 0.00 0.00 52 1014.8
20260502195514 48 303 3.5 3.5 0.00 0.00 0.00 51 1014.7
20260502195010 46 44 0.9 1.7 0.00 0.00 0.00 59 1014.8
20260502194507 47 296 2.6 3.5 0.00 0.00 0.00 54 1014.8
20260502194003 46 278 3.5 5.2 0.00 0.00 0.00 53 1015.0
20260502193501 46 313 2.6 3.5 0.00 0.00 0.00 55 1015.0
20260502192956 46 318 2.6 3.5 0.00 0.00 0.00 56 1015.1
20260502192452 46 301 0.0 1.7 0.00 0.00 0.00 57 1015.2
20260502191949 46 304 3.5 11.3 0.00 0.00 0.00 55 1015.0
20260502191447 46 306 3.5 6.1 0.00 0.00 0.00 54 1015.1
20260502190944 47 50 2.6 8.7 0.00 0.00 0.00 53 1015.0
20260502190441 49 15 0.9 6.1 0.00 0.00 0.00 51 1015.0
20260502185937 47 256 1.7 6.1 0.00 0.00 0.00 53 1015.1
20260502185433 46 300 3.5 7.8 0.00 0.00 0.00 54 1015.3
20260502184930 46 318 3.5 7.0 0.00 0.00 0.00 51 1015.2
20260502184425 46 299 2.6 3.5 0.00 0.00 0.00 52 1015.2
20260502183922 46 37 0.0 7.0 0.00 0.00 0.00 52 1015.2
20260502183419 46 271 0.9 7.0 0.00 0.00 0.00 54 1015.2
20260502182915 46 302 3.5 5.2 0.00 0.00 0.00 53 1015.2
20260502182410 47 267 4.3 5.2 0.00 0.00 0.00 52 1015.2
20260502181907 47 332 0.9 6.1 0.00 0.00 0.00 53 1015.1
20260502181405 50 307 4.3 7.8 0.00 0.00 0.00 49 1015.2
20260502180903 47 315 0.9 0.9 0.00 0.00 0.00 52 1015.3
20260502180359 47 306 3.5 5.2 0.00 0.00 0.00 54 1015.3
20260502170318 48 16 3.5 7.0 0.00 0.00 0.00 50 1015.6
20260502164306 47 116 1.7 5.2 0.00 0.00 0.00 52 1015.5
20260502163801 48 300 6.1 7.0 0.00 0.00 0.00 49 1015.6
20260502163258 49 322 1.7 7.8 0.00 0.00 0.00 48 1015.6
20260502162755 48 328 2.6 6.1 0.00 0.00 0.00 48 1015.7
20260502162252 49 64 1.7 6.1 0.00 0.00 0.00 50 1015.6
20260502161749 48 62 1.7 2.6 0.00 0.00 0.00 54 1015.7
20260502161245 47 11 3.5 3.5 0.00 0.00 0.00 51 1016.0
20260502160743 46 299 3.5 8.7 0.00 0.00 0.00 53 1016.0
20260502160242 47 57 3.5 6.1 0.00 0.00 0.00 54 1015.8
20260502152206 46 21 0.9 7.0 0.00 0.00 0.00 54 1015.9
20260502151704 46 288 1.7 6.1 0.00 0.00 0.00 55 1015.8
20260502151201 45 285 3.5 7.8 0.00 0.00 0.00 57 1015.7
20260502150658 46 297 0.9 2.6 0.00 0.00 0.00 55 1016.0
20260502150154 48 12 0.0 1.7 0.00 0.00 0.00 54 1016.1
20260502140118 46 292 5.2 6.1 0.00 0.00 0.00 61 1016.0
20260502130543 42 262 0.0 0.9 0.00 0.00 0.00 80 1016.0
20260502123526 40 13 0.0 0.0 0.00 0.00 0.00 82 1015.8
20260502123023 40 286 0.9 0.9 0.00 0.00 0.00 84 1015.8
20260502122519 39 292 0.0 1.7 0.00 0.00 0.00 84 1016.0
20260502122017 39 286 0.9 1.7 0.00 0.00 0.00 85 1016.2
20260502121514 39 293 1.7 2.6 0.00 0.00 0.00 86 1015.9
20260502121011 39 294 0.0 0.0 0.00 0.00 0.00 86 1015.7
20260502120508 39 286 0.0 0.0 0.00 0.00 0.00 86 1015.8
20260502115502 39 231 0.0 0.0 0.00 0.00 0.00 87 1015.8
20260502114958 38 57 0.0 0.0 0.00 0.00 0.00 88 1015.8
20260502114455 38 51 0.0 0.9 0.00 0.00 0.00 90 1015.8
20260502113952 37 295 0.0 0.0 0.00 0.00 0.00 91 1015.9
20260502113449 37 295 0.0 0.0 0.00 0.00 0.00 93 1015.6
20260502112948 36 295 0.0 0.0 0.00 0.00 0.00 94 1015.7
20260502112445 36 295 0.0 0.0 0.00 0.00 0.00 94 1015.7
20260502111943 36 295 0.0 0.0 0.00 0.00 0.00 95 1015.7
20260502111440 35 295 0.0 0.0 0.00 0.00 0.00 95 1015.7
20260502110937 35 295 0.0 0.0 0.00 0.00 0.00 95 1015.6
20260502110435 35 295 0.0 0.0 0.00 0.00 0.00 95 1015.7
20260502105931 35 295 0.0 0.0 0.00 0.00 0.00 94 1015.6
20260502105429 35 295 0.0 0.0 0.00 0.00 0.00 94 1015.3
20260502104927 35 295 0.0 0.0 0.00 0.00 0.00 94 1015.5
20260502104424 35 295 0.0 0.0 0.00 0.00 0.00 94 1015.6
20260502103921 35 295 0.0 0.0 0.00 0.00 0.00 94 1015.2
20260502103419 35 295 0.0 0.0 0.00 0.00 0.00 94 1015.5
20260502102915 35 295 0.0 0.0 0.00 0.00 0.00 94 1015.6
20260502102412 35 295 0.0 0.0 0.00 0.00 0.00 93 1015.7
20260502101910 35 295 0.0 0.0 0.00 0.00 0.00 93 1015.6
20260502101408 35 295 0.0 0.0 0.00 0.00 0.00 93 1015.9
20260502100905 35 295 0.0 0.0 0.00 0.00 0.00 93 1015.7
20260502100405 35 295 0.0 0.0 0.00 0.00 0.00 93 1015.6
20260502091338 36 295 0.0 0.0 0.00 0.00 0.00 88 1015.9
20260502090836 37 295 0.0 0.0 0.00 0.00 0.00 88 1015.9
20260502090332 37 295 0.0 0.0 0.00 0.00 0.00 87 1015.7
20260502071228 40 261 0.0 0.0 0.00 0.00 0.00 75 1015.6
20260502070726 40 261 0.0 0.0 0.00 0.00 0.00 74 1015.8
20260502070223 41 261 0.0 0.0 0.00 0.00 0.00 74 1015.7
20260502065721 41 261 0.0 0.0 0.00 0.00 0.00 74 1016.0
20260502065219 41 261 0.0 0.0 0.00 0.00 0.00 74 1015.7
20260502064717 41 265 0.0 0.9 0.00 0.00 0.00 73 1015.7
20260502064215 41 0 0.9 1.7 0.00 0.00 0.00 73 1015.7
20260502063712 42 278 0.0 0.0 0.00 0.00 0.00 72 1015.6
20260502063210 42 268 0.0 0.9 0.00 0.00 0.00 72 1015.8
20260502062706 42 268 0.0 0.9 0.00 0.00 0.00 72 1016.0
20260502062204 42 299 0.0 0.9 0.00 0.00 0.00 72 1015.9
20260502061703 42 10 0.9 2.6 0.00 0.00 0.00 72 1015.9
20260502061159 42 45 0.0 0.0 0.00 0.00 0.00 73 1016.1
20260502060655 42 12 0.0 0.0 0.00 0.00 0.00 72 1016.2
20260502060151 42 254 0.0 0.9 0.00 0.00 0.00 72 1016.2
20260502055649 42 67 0.0 0.0 0.00 0.00 0.00 73 1015.8
20260502055147 42 67 0.0 0.0 0.00 0.00 0.00 74 1016.1
20260502054646 42 67 0.0 0.0 0.00 0.00 0.00 73 1015.9
20260502054143 42 278 0.9 0.9 0.00 0.00 0.00 74 1015.9
20260502053640 42 290 0.0 0.9 0.00 0.00 0.00 73 1015.9
20260502053137 43 279 0.0 0.0 0.00 0.00 0.00 73 1016.1
20260502052635 43 299 0.0 1.7 0.00 0.00 0.00 73 1016.2
20260502052133 43 99 0.0 2.6 0.00 0.00 0.00 73 1016.2
20260502051631 43 301 0.9 0.9 0.00 0.00 0.00 72 1016.0
20260502051129 43 306 0.0 0.9 0.00 0.00 0.00 71 1016.2
20260502050625 43 322 0.0 2.6 0.00 0.00 0.00 71 1016.2
20260502050122 44 281 1.7 5.2 0.00 0.00 0.00 72 1016.3
20260502045618 44 68 0.9 1.7 0.00 0.00 0.00 74 1016.1
20260502045115 44 297 0.9 0.9 0.00 0.00 0.00 74 1016.2
20260502044612 44 305 4.3 5.2 0.00 0.00 0.00 74 1016.2
20260502044109 44 159 3.5 3.5 0.00 0.00 0.00 74 1016.2
20260502043606 44 287 1.7 2.6 0.00 0.00 0.00 75 1016.3
20260502043103 44 301 2.6 2.6 0.00 0.00 0.00 76 1016.0
20260502042602 44 44 1.7 3.5 0.00 0.00 0.00 77 1016.2
20260502042100 45 214 2.6 3.5 0.00 0.00 0.00 78 1016.1
20260502041558 45 308 4.3 6.1 0.00 0.00 0.00 77 1016.1
20260502041054 45 267 1.7 6.1 0.00 0.00 0.00 78 1016.1
20260502040551 45 357 0.9 3.5 0.00 0.00 0.00 79 1016.1
20260502040048 45 294 3.5 3.5 0.00 0.00 0.00 79 1016.0
20260502035544 45 22 0.0 3.5 0.00 0.00 0.00 79 1016.1
20260502035042 45 317 1.7 5.2 0.00 0.00 0.00 80 1016.0
20260502034540 46 214 0.0 2.6 0.00 0.00 0.00 80 1016.1
20260502034038 46 299 2.6 3.5 0.00 0.00 0.00 79 1016.0
20260502033536 46 292 0.9 1.7 0.00 0.00 0.00 79 1016.1
20260502033033 46 280 0.9 2.6 0.00 0.00 0.00 79 1016.0
20260502032528 46 340 0.0 2.6 0.00 0.00 0.00 79 1015.9
20260502032025 46 293 3.5 3.5 0.00 0.00 0.00 79 1016.1
20260502031523 46 286 1.7 2.6 0.00 0.00 0.00 78 1016.0
20260502031021 46 283 0.9 1.7 0.00 0.00 0.00 77 1016.0
20260502030520 46 290 0.0 1.7 0.00 0.00 0.00 77 1016.1
20260502030017 46 28 0.9 2.6 0.00 0.00 0.00 77 1016.0
20260502025514 46 234 0.0 0.0 0.00 0.00 0.00 77 1016.1
20260502025012 46 193 0.0 0.9 0.00 0.00 0.00 76 1016.1
20260502024509 46 291 2.6 2.6 0.00 0.00 0.00 76 1015.9
20260502024008 46 305 2.6 3.5 0.00 0.00 0.00 75 1015.9
20260502023505 46 328 0.0 1.7 0.00 0.00 0.00 75 1015.9
20260502023002 46 338 0.9 3.5 0.00 0.00 0.00 74 1015.7
20260502022459 46 226 0.0 0.0 0.00 0.00 0.00 75 1015.8
20260502021956 46 211 0.0 0.0 0.00 0.00 0.00 75 1015.5
20260502021453 46 296 0.0 0.0 0.00 0.00 0.00 75 1015.6
20260502020950 46 306 0.0 1.7 0.00 0.00 0.00 76 1015.6
20260502020448 46 306 0.0 0.0 0.00 0.00 0.00 75 1015.6
20260502015944 46 355 0.0 1.7 0.00 0.00 0.00 75 1015.5
20260502015442 46 334 0.0 0.9 0.00 0.00 0.00 75 1015.2
20260502014939 46 305 0.9 1.7 0.00 0.00 0.00 75 1015.1
20260502014435 47 220 0.9 1.7 0.00 0.00 0.00 75 1014.7
20260502013932 47 21 0.0 0.9 0.00 0.00 0.00 74 1014.8
20260502013427 47 8 1.7 2.6 0.00 0.00 0.00 74 1014.8
20260502012924 48 270 0.9 2.6 0.00 0.00 0.00 74 1014.6
20260502012422 48 306 5.2 6.1 0.00 0.00 0.00 73 1014.6
20260502011919 48 271 1.7 2.6 0.00 0.00 0.00 73 1014.6
20260502011415 49 311 0.0 1.7 0.00 0.00 0.00 72 1014.4
20260502010908 49 264 0.9 6.1 0.00 0.00 0.00 71 1014.4
20260502010404 49 303 0.9 2.6 0.00 0.00 0.00 71 1014.3
20260502005900 49 289 1.7 2.6 0.00 0.00 0.00 72 1014.1
20260502005358 49 307 0.0 5.2 0.00 0.00 0.00 72 1014.3
20260502004856 49 287 3.5 7.0 0.00 0.00 0.00 72 1014.2
20260502004351 49 293 1.7 3.5 0.00 0.00 0.00 73 1013.8
20260502003849 50 320 5.2 7.8 0.00 0.00 0.00 73 1013.7
20260502003346 50 300 4.3 7.0 0.00 0.00 0.00 73 1013.7
20260502002843 50 279 0.9 7.8 0.00 0.00 0.00 75 1013.6
20260502002340 50 300 2.6 6.1 0.00 0.00 0.00 75 1013.6
20260502001837 50 291 3.5 3.5 0.00 0.00 0.00 75 1013.4
20260502001335 51 345 0.9 1.7 0.00 0.00 0.00 74 1013.3
20260502000832 51 299 1.7 5.2 0.00 0.00 0.00 73 1013.3
20260502000332 51 334 0.0 0.9 0.00 0.00 0.00 72 1013.1
20260501235826 51 290 4.3 6.1 0.00 0.00 0.00 71 1013.0
20260501235322 51 320 2.6 5.2 0.00 0.00 0.00 70 1013.0
20260501234817 51 292 1.7 1.7 0.00 0.00 0.00 70 1012.9
20260501234315 52 292 3.5 3.5 0.00 0.00 0.00 69 1012.8